Location: Carri�res
(48.9069°N, 2.1792°E)
Time: 12:06:22
(UTC+00:00)

deb Kosmos- 1898 - Pass Details

Date: 29 July 2021
Orbit: 731 x 754 km, 74.0° (Epoch: 18 September)

Event Time Altitude Azimuth Distance (km) Brightness Sun altitude
Exits shadow 01:05:39 - 127° (SE) 2,417 ? -20.7°
Reaches altitude 10° 01:06:30 10° 119° (ESE) 2,253 ? -20.7°
Maximum altitude 01:08:46 13° 93° (E) 2,057 ? -20.5°
Drops below altitude 10° 01:11:02 10° 66° (ENE) 2,268 ? -20.4°
Sets 01:14:41 0° 40° (NE) 3,204 ? -20.2°
